Regional Weather Roundup
Issued by NWS Goodland, KS

Home | Current Version | Previous Version | Graphics & Text | Print | Product List | Glossary On
Versions: 1 2 3 4 5 6 7 8 9 10 11 12 13 14 15 16 17 18 19 20 21 22 23 24 25 26 27 28 29 30 31 32 33 34 35 36 37 38 39 40 41 42 43 44 45 46 47 48 49 50
000
ASUS43 KGLD 250059
RWRGLD

GOODLAND FORECAST AREA HOURLY WEATHER ROUNDUP
NATIONAL WEATHER SERVICE GOODLAND KS
600 PM MST WED DEC 24 2014

...OFFICIAL OBSERVATIONS...

CITY           SKY/WX    TMP DP  RH WIND       PRES   REMARKS
GOODLAND KS    PTCLDY    37  20  50 SW15      29.66F
HILL CITY KS   PTCLDY    33  14  45 SW6       29.71F
IMPERIAL NEB   CLOUDY    36  25  64 SW9       29.62F
MCCOOK NEB     PTCLDY    34  23  64 SW8       29.65F
AKRON CO       PTCLDY    34  23  64 S9        29.59F
BURLINGTON CO  MOCLDY    34  20  56 SW15      29.66F
LIMON CO       PTCLDY    33  14  45 S8        29.65F
$$

...UNOFFICIAL OBSERVATIONS...

CITY           SKY/WX    TMP DP  RH WIND       PRES   REMARKS
COLBY KS       CLEAR     36  25  64 S9        29.67F
GOVE KS          N/A     36  32  85 MISG        N/A
NORTON KS      CLEAR     34  18  51 S6        29.67F
SHARON SPRINGS   N/A     33  16  49 S10         N/A
TRIBUNE KS     CLEAR     34  19  55 S10       29.71F
KIT CARSON CO    N/A     32  21  65 MISG        N/A
YUMA CO          N/A     34  22  62 S12         N/A
$$



USA.gov is the U.S. government's official web portal to all federal, state and local government web resources and services.